Location: Risskov
(56.1972°N, 10.2480°E)
Time: 13:12:28
(UTC+00:00)

Cosmos 1633 - Pass Details

Date: 05 July 2020
Orbit: 462 x 482 km, 82.5° (Epoch: 07 August)

Event Time Altitude Azimuth Distance (km) Brightness Sun altitude
Exits shadow 23:01:00 15° 151° (SSE) 1,391 4.3 -11.0°
Maximum altitude 23:03:32 33° 93° (E) 834 3.7 -11.0°
Drops below altitude 10° 23:06:50 10° 28° (NNE) 1,666 6.2 -11.1°
Sets 23:09:03 0° 19° (NNE) 2,547 7.6 -11.1°
